TimeEDT,TemperatureF,Dew PointF,Humidity,Sea Level PressureIn,VisibilityMPH,Wind Direction,Wind SpeedMPH,Gust SpeedMPH,PrecipitationIn,Events,Conditions,WindDirDegrees,DateUTC
12:19 AM,35.6,32.0,87,29.73,8.0,WNW,4.6,-,0.00,Snow,Light Snow,290,2013-05-12 04:19:00
12:42 AM,33.8,32.0,93,29.74,2.5,WNW,6.9,-,0.01,Snow,Light Snow,290,2013-05-12 04:42:00
12:53 AM,34.0,32.0,92,29.76,7.0,WNW,9.2,23.0,0.02,Snow,Light Snow,290,2013-05-12 04:53:00
1:53 AM,34.0,30.9,89,29.76,7.0,West,10.4,29.9,0.00,Snow,Light Snow,280,2013-05-12 05:53:00
2:07 AM,33.8,32.0,93,29.72,2.5,West,10.4,17.3,0.00,Snow,Light Snow,280,2013-05-12 06:07:00
2:11 AM,33.8,32.0,93,29.72,2.0,West,9.2,-,0.00,Snow,Light Snow,280,2013-05-12 06:11:00
2:15 AM,33.8,32.0,93,29.72,3.0,West,12.7,18.4,0.00,Snow,Light Snow,280,2013-05-12 06:15:00
2:24 AM,33.8,32.0,93,29.72,2.5,West,12.7,20.7,0.00,Snow,Light Snow,280,2013-05-12 06:24:00
2:33 AM,33.8,30.2,87,29.72,6.0,West,15.0,20.7,0.00,Snow,Light Snow,270,2013-05-12 06:33:00
2:53 AM,34.0,30.9,89,29.75,8.0,West,13.8,25.3,0.00,Snow,Light Snow,280,2013-05-12 06:53:00
3:30 AM,33.8,30.2,87,29.70,1.8,West,12.7,26.5,0.01,Snow,Light Snow,280,2013-05-12 07:30:00
3:53 AM,32.0,30.9,96,29.75,0.5,West,12.7,21.9,0.02,Fog-Snow,Snow,270,2013-05-12 07:53:00
4:18 AM,32.0,30.2,93,29.70,1.0,West,11.5,21.9,0.01,Snow,Light Snow,280,2013-05-12 08:18:00
4:31 AM,32.0,30.2,93,29.70,0.8,West,10.4,21.9,0.02,Snow,Light Snow,280,2013-05-12 08:31:00
4:53 AM,32.0,30.9,96,29.75,0.8,WNW,10.4,24.2,0.04,Snow,Light Snow,290,2013-05-12 08:53:00
5:19 AM,32.0,30.2,93,29.72,1.0,WNW,13.8,24.2,0.01,Snow,Light Snow,290,2013-05-12 09:19:00
5:53 AM,32.0,30.9,96,29.78,1.2,WNW,10.4,21.9,0.02,Snow,Light Snow,300,2013-05-12 09:53:00
6:22 AM,32.0,30.2,93,29.75,1.5,NW,9.2,24.2,0.01,Snow,Light Snow,310,2013-05-12 10:22:00
6:44 AM,32.0,30.2,93,29.76,3.0,NW,11.5,24.2,0.02,Snow,Light Snow,310,2013-05-12 10:44:00
6:53 AM,32.0,30.0,92,29.81,4.0,NW,10.4,23.0,0.02,Snow,Light Snow,310,2013-05-12 10:53:00
6:55 AM,32.0,30.2,93,29.76,2.0,NW,11.5,23.0,0.00,Snow,Light Snow,310,2013-05-12 10:55:00
7:02 AM,32.0,30.2,93,29.77,1.0,WNW,15.0,24.2,0.00,Snow,Light Snow,300,2013-05-12 11:02:00
7:13 AM,32.0,30.2,93,29.77,3.0,NW,9.2,24.2,0.00,Snow,Light Snow,310,2013-05-12 11:13:00
7:21 AM,32.0,30.2,93,29.77,2.5,NW,9.2,18.4,0.00,Snow,Light Snow,320,2013-05-12 11:21:00
7:26 AM,32.0,28.4,87,29.78,3.0,NW,12.7,23.0,0.00,Snow,Light Snow,310,2013-05-12 11:26:00
7:53 AM,32.0,28.9,88,29.83,7.0,WNW,10.4,18.4,0.00,,Overcast,300,2013-05-12 11:53:00
7:57 AM,32.0,28.4,87,29.78,1.2,NW,12.7,23.0,0.00,Snow,Light Snow,310,2013-05-12 11:57:00
8:05 AM,30.2,28.4,93,29.78,0.5,WNW,9.2,19.6,0.01,Fog-Snow,Light Snow,300,2013-05-12 12:05:00
8:11 AM,32.0,28.4,87,29.79,2.0,Variable,6.9,19.6,0.01,Snow,Light Snow,0,2013-05-12 12:11:00
8:14 AM,32.0,30.2,93,29.79,3.0,Variable,5.8,16.1,0.01,Snow,Light Snow,0,2013-05-12 12:14:00
8:24 AM,32.0,28.4,87,29.79,1.2,NW,17.3,25.3,0.01,Snow,Light Snow,310,2013-05-12 12:24:00
8:29 AM,32.0,28.4,87,29.79,0.8,WNW,13.8,25.3,0.01,Snow,Light Snow,300,2013-05-12 12:29:00
8:35 AM,32.0,28.4,87,29.79,2.5,NW,13.8,26.5,0.01,Snow,Light Snow,310,2013-05-12 12:35:00
8:42 AM,33.8,28.4,81,29.79,8.0,WNW,10.4,26.5,0.01,,Overcast,300,2013-05-12 12:42:00
8:44 AM,33.8,28.4,81,29.79,4.0,WNW,8.1,23.0,0.01,Snow,Light Snow,300,2013-05-12 12:44:00
8:46 AM,32.0,28.4,87,29.79,1.2,WNW,10.4,19.6,0.01,Snow,Light Snow,300,2013-05-12 12:46:00
8:53 AM,30.9,30.0,96,29.84,0.5,WNW,18.4,31.1,0.01,Fog-Snow,Snow,300,2013-05-12 12:53:00
9:07 AM,32.0,28.4,87,29.80,2.0,NW,15.0,27.6,0.01,Snow,Light Snow,310,2013-05-12 13:07:00
9:12 AM,32.0,28.4,87,29.80,1.8,NW,13.8,27.6,0.01,Snow,Light Snow,310,2013-05-12 13:12:00
9:15 AM,32.0,28.4,87,29.80,0.8,WNW,13.8,27.6,0.01,Snow,Light Snow,300,2013-05-12 13:15:00
9:25 AM,32.0,28.4,87,29.81,1.0,WNW,17.3,28.8,0.01,Snow,Light Snow,300,2013-05-12 13:25:00
9:39 AM,32.0,28.4,87,29.81,3.0,WNW,13.8,27.6,0.01,Snow,Light Snow,290,2013-05-12 13:39:00
9:53 AM,32.0,28.0,85,29.86,6.0,WNW,11.5,32.2,0.01,Snow,Light Snow,300,2013-05-12 13:53:00
10:19 AM,30.2,26.6,86,29.82,1.5,NW,13.8,25.3,0.00,Snow,Light Snow,310,2013-05-12 14:19:00
10:33 AM,32.0,26.6,80,29.82,3.0,NW,17.3,33.4,0.00,Snow,Light Snow,310,2013-05-12 14:33:00
10:39 AM,32.0,26.6,80,29.82,2.0,WNW,10.4,32.2,0.01,Snow,Light Snow,290,2013-05-12 14:39:00
10:44 AM,32.0,28.4,87,29.83,1.5,WNW,11.5,29.9,0.01,Snow,Light Snow,300,2013-05-12 14:44:00
10:49 AM,32.0,26.6,80,29.82,3.0,WNW,19.6,34.5,0.01,Snow,Light Snow,290,2013-05-12 14:49:00
10:53 AM,32.0,27.0,82,29.87,8.0,WNW,17.3,34.5,0.01,,Overcast,290,2013-05-12 14:53:00
11:53 AM,30.9,25.0,79,29.90,10.0,WNW,12.7,26.5,0.00,,Overcast,290,2013-05-12 15:53:00
12:36 PM,32.0,24.8,75,29.87,10.0,WNW,13.8,31.1,0.00,,Overcast,300,2013-05-12 16:36:00
12:53 PM,32.0,25.0,75,29.91,10.0,WNW,16.1,29.9,0.00,,Overcast,300,2013-05-12 16:53:00
1:05 PM,33.8,24.8,70,29.87,10.0,WNW,13.8,26.5,N/A,,Overcast,300,2013-05-12 17:05:00
1:17 PM,33.8,24.8,70,29.88,10.0,WNW,15.0,28.8,N/A,,Overcast,290,2013-05-12 17:17:00
1:53 PM,33.1,24.1,70,29.93,10.0,WNW,11.5,29.9,0.00,Rain,Light Rain,300,2013-05-12 17:53:00
2:29 PM,33.8,23.0,65,29.89,10.0,WNW,17.3,29.9,0.00,,Overcast,300,2013-05-12 18:29:00
2:53 PM,33.1,21.9,64,29.94,10.0,WNW,12.7,29.9,0.00,,Overcast,300,2013-05-12 18:53:00
3:53 PM,34.0,23.0,64,29.96,10.0,WNW,13.8,24.2,0.00,,Overcast,300,2013-05-12 19:53:00
4:53 PM,34.0,21.9,61,29.98,10.0,WNW,10.4,28.8,0.00,,Overcast,300,2013-05-12 20:53:00
5:53 PM,34.0,23.0,64,30.00,10.0,WNW,11.5,24.2,0.00,,Overcast,290,2013-05-12 21:53:00
6:53 PM,33.1,24.1,70,30.03,9.0,WNW,10.4,25.3,0.00,,Overcast,300,2013-05-12 22:53:00
7:53 PM,33.1,23.0,66,30.04,10.0,WNW,16.1,23.0,N/A,,Overcast,290,2013-05-12 23:53:00
8:53 PM,32.0,21.9,66,30.05,10.0,WNW,8.1,18.4,N/A,,Overcast,300,2013-05-13 00:53:00
9:53 PM,30.9,21.0,67,30.06,10.0,WNW,9.2,17.3,N/A,,Partly Cloudy,300,2013-05-13 01:53:00
10:53 PM,30.0,21.9,72,30.07,10.0,Variable,3.5,-,N/A,,Clear,0,2013-05-13 02:53:00
11:53 PM,30.0,21.9,72,30.07,10.0,WNW,5.8,-,N/A,,Clear,300,2013-05-13 03:53:00